Location: *
(45.5667°S, 177.5167°W)
Time: 07:53:54
(UTC+00:00)

Cosmos 1833 Rocket - Visible Passes

Search period start: 06 October 2022 00:00
Search period end: 16 October 2022 00:00
Orbit: 831 x 841 km, 71.0° (Epoch: 05 October)

Date Brightness Start Highest point End Pass type
(mag) Time Alt. Az. Time Alt. Az. Time Alt. Az.
06 Oct 4.6 09:47:47 10° S 09:51:17 20° SE 09:51:17 20° SE visible
06 Oct 4.7 11:30:56 10° SSW 11:32:58 23° SSW 11:32:58 23° SSW visible
07 Oct 4.6 09:31:05 10° S 09:34:51 20° SE 09:34:51 20° SE visible
07 Oct 4.5 11:14:08 10° SSW 11:16:32 26° SSW 11:16:32 26° SSW visible
08 Oct 4.6 09:14:24 10° S 09:18:18 19° SE 09:18:25 18° SE visible
08 Oct 4.3 10:57:21 10° SSW 11:00:07 30° SSW 11:00:07 30° SSW visible
09 Oct 4.6 08:57:43 10° S 09:01:26 17° SE 09:02:01 17° SE visible
09 Oct 4.1 10:40:34 10° SSW 10:43:42 34° SSW 10:43:42 34° SSW visible
10 Oct 4.6 08:41:02 10° S 08:44:34 16° SE 08:45:37 16° SE visible
10 Oct 3.9 10:23:47 10° SSW 10:27:19 39° SSW 10:27:19 39° SSW visible
11 Oct 4.6 08:24:22 10° S 08:27:42 15° SE 08:29:15 14° ESE visible
11 Oct 3.6 10:07:00 10° SSW 10:10:57 45° S 10:10:57 45° S visible
11 Oct 5.2 11:52:12 10° WSW 11:52:38 11° WSW 11:52:38 11° WSW visible
12 Oct 4.7 08:07:43 10° S 08:10:49 15° SE 08:12:54 12° ESE visible
12 Oct 3.4 09:50:13 10° SSW 09:54:36 50° S 09:54:36 50° S visible
12 Oct 5.1 11:35:14 10° SW 11:36:17 14° WSW 11:36:17 14° WSW visible
13 Oct 4.8 07:51:05 10° S 07:53:56 14° SE 07:56:34 10° ESE visible
13 Oct 3.1 09:33:27 10° SSW 09:38:16 55° SSE 09:38:16 55° SSE visible
13 Oct 4.9 11:18:18 10° SW 11:19:58 16° WSW 11:19:58 16° WSW visible
14 Oct 4.8 07:34:28 10° S 07:37:03 13° SE 07:39:37 10° ESE visible
14 Oct 3.0 09:16:40 10° SSW 09:21:58 56° SE 09:21:58 56° SE visible
14 Oct 4.7 11:01:22 10° SW 11:03:40 19° WSW 11:03:40 19° WSW visible
15 Oct 4.8 07:17:54 10° SSE 07:20:09 12° SE 07:22:24 10° ESE visible
15 Oct 3.0 08:59:54 10° SSW 09:05:29 53° ESE 09:05:41 52° ESE visible
15 Oct 4.5 10:44:27 10° SW 10:47:23 22° WSW 10:47:23 22° WSW visible
